Location: Unspecified
(48.7670°N, 0.0000°E)
Time: 08:21:57
(UTC+00:00)

Altair - Pass Details

Date: 03 October 2020
Orbit: 1502 x 1682 km, 47.2° (Epoch: 20 October)

Event Time Altitude Azimuth Distance (km) Brightness Sun altitude
Rises 18:25:32 0° 290° (WNW) 4,931 11.9 -9.3°
Reaches altitude 10° 18:29:01 10° 283° (WNW) 3,947 11.2 -9.9°
Maximum altitude 18:37:51 36° 222° (SW) 2,455 8.9 -11.3°
Drops below altitude 10° 18:46:35 10° 161° (SSE) 3,899 9.4 -12.8°
Sets 18:50:02 0° 153° (SSE) 4,864 9.8 -13.3°
